CW3702 Weather Reports


time (UTC)temp
F
wind
direction
speed
knots
gust
knots
rain 1hr
in
rain 24hr
in
rain mn
in
humidity
%
barometer
mb
20260505083515 41 101 1.7 3.5 0.00 0.09 0.03 93 1012.3
20260505083031 41 101 0.9 3.5 0.00 0.09 0.03 93 1012.4
20260505082513 41 40 0.9 2.6 0.00 0.09 0.03 93 1012.5
20260505082015 41 0 0.0 1.7 0.00 0.09 0.03 93 1012.7
20260505081541 41 0 0.0 1.7 0.00 0.09 0.03 93 1012.6
20260505081013 41 40 0.9 1.7 0.00 0.09 0.03 93 1013.0
20260505080516 41 0 0.0 1.7 0.00 0.09 0.03 93 1013.0
20260505080033 41 40 0.0 1.7 0.00 0.09 0.03 93 1012.9
20260505075512 41 40 0.0 1.7 0.00 0.09 0.03 93 1012.9
20260505075016 41 40 0.0 2.6 0.00 0.09 0.03 93 1013.0
20260505074530 41 40 0.9 2.6 0.00 0.09 0.03 92 1013.1
20260505074012 41 40 1.7 3.5 0.01 0.09 0.03 92 1013.2
20260505073512 41 40 1.7 3.5 0.01 0.09 0.03 92 1013.2
20260505073043 41 40 1.7 3.5 0.01 0.09 0.03 92 1013.2
20260505072512 41 40 1.7 5.2 0.01 0.09 0.03 92 1013.3
20260505072012 41 40 2.6 5.2 0.01 0.09 0.03 91 1013.2
20260505071546 41 40 3.5 5.2 0.02 0.09 0.03 91 1013.2
20260505071014 41 20 2.6 6.1 0.02 0.09 0.03 91 1013.2
20260505070515 41 20 3.5 6.1 0.02 0.09 0.03 91 1013.5
20260505070034 41 20 2.6 6.1 0.02 0.09 0.03 91 1013.5
20260505065514 41 20 3.5 6.1 0.03 0.09 0.03 91 1013.5
20260505065016 41 20 2.6 6.1 0.03 0.09 0.03 91 1013.6
20260505064533 41 20 2.6 7.0 0.03 0.09 0.03 91 1013.5
20260505064019 41 20 4.3 7.0 0.02 0.08 0.02 90 1013.4
20260505063515 42 20 1.7 6.1 0.02 0.08 0.02 91 1013.4
20260505063030 42 20 1.7 7.8 0.02 0.08 0.02 90 1013.5
20260505062516 42 20 5.2 7.8 0.02 0.08 0.02 90 1013.0
20260505062015 42 9 4.3 7.0 0.02 0.08 0.02 90 1013.0
20260505061533 42 9 0.9 4.3 0.01 0.07 0.01 90 1013.5
20260505061017 42 9 1.7 4.3 0.01 0.07 0.01 90 1013.7
20260505060515 42 9 2.6 4.3 0.01 0.07 0.01 89 1013.5
20260505060033 42 9 1.7 5.2 0.00 0.06 0.00 89 1013.5
20260505055514 42 338 1.7 5.2 0.00 0.06 0.06 89 1013.5
20260505055014 42 338 2.6 5.2 0.00 0.06 0.06 88 1013.8
20260505054547 42 324 1.7 5.2 0.00 0.06 0.06 88 1013.8
20260505054014 42 324 2.6 7.0 0.00 0.06 0.06 88 1013.7
20260505053513 42 332 4.3 7.0 0.00 0.06 0.06 88 1013.7
20260505053050 42 317 3.5 8.7 0.00 0.06 0.06 87 1013.9
20260505052518 42 309 5.2 8.7 0.00 0.06 0.06 87 1013.8
20260505052014 42 307 4.3 7.8 0.00 0.06 0.06 87 1013.8
20260505051538 42 306 4.3 7.8 0.00 0.06 0.06 86 1013.7
20260505051016 42 319 4.3 7.8 0.00 0.06 0.06 86 1013.7
20260505050516 42 321 4.3 7.8 0.00 0.06 0.06 86 1013.7
20260505041530 42 347 2.6 4.3 0.01 0.06 0.06 85 1013.1
20260505041015 42 347 2.6 7.0 0.02 0.06 0.06 85 1012.9
20260505040514 42 347 2.6 7.0 0.03 0.06 0.06 84 1013.0
20260505040036 42 24 4.3 8.7 0.03 0.06 0.06 83 1013.0
20260505035513 43 24 4.3 8.7 0.03 0.06 0.06 82 1013.0
20260505035014 42 20 6.1 7.8 0.04 0.06 0.06 83 1012.8
20260505034532 42 20 4.3 6.1 0.04 0.06 0.06 83 1013.3
20260505034016 42 20 3.5 7.8 0.04 0.06 0.06 83 1013.4
20260505033513 43 20 4.3 8.7 0.04 0.06 0.06 83 1013.3
20260505033040 43 10 4.3 8.7 0.04 0.06 0.06 82 1013.0
20260505032514 42 14 4.3 9.6 0.04 0.06 0.06 82 1013.1
20260505032018 43 325 7.0 9.6 0.03 0.05 0.05 82 1013.1
20260505031530 43 346 7.0 9.6 0.03 0.05 0.05 81 1013.1
20260505031018 43 324 6.1 8.7 0.02 0.04 0.04 82 1013.2
20260505030517 43 327 4.3 7.0 0.01 0.03 0.03 81 1013.2
20260505030032 43 9 4.3 7.0 0.01 0.03 0.03 81 1013.2
20260505025517 43 9 4.3 7.0 0.01 0.03 0.03 80 1013.1
20260505025014 43 9 3.5 8.7 0.00 0.02 0.02 79 1013.1
20260505024531 43 9 4.3 8.7 0.00 0.02 0.02 79 1013.1
20260505024013 43 33 2.6 4.3 0.00 0.02 0.02 81 1013.1
20260505023516 43 33 0.0 2.6 0.01 0.02 0.02 80 1013.0
20260505023032 43 0 0.0 2.6 0.02 0.02 0.02 79 1012.8
20260505022513 43 33 0.9 5.2 0.02 0.02 0.02 79 1012.4
20260505022017 43 33 2.6 7.0 0.02 0.02 0.02 78 1012.5
20260505021533 44 30 3.5 7.0 0.02 0.02 0.02 77 1012.6
20260505021014 44 18 4.3 8.7 0.02 0.02 0.02 76 1012.7
20260505020515 44 5 4.3 8.7 0.02 0.02 0.02 75 1013.0
20260505020032 44 42 2.6 13.9 0.02 0.02 0.02 73 1012.9
20260505015516 45 42 5.2 20.0 0.02 0.02 0.02 70 1012.6
20260505015017 45 24 9.6 20.0 0.02 0.02 0.02 68 1012.7
20260505014531 45 16 9.6 20.0 0.02 0.02 0.02 67 1012.7
20260505014015 46 327 3.5 18.2 0.02 0.02 0.02 66 1012.4
20260505013514 46 309 6.1 18.2 0.01 0.01 0.01 64 1012.5
20260505013030 46 304 6.1 25.2 0.00 0.00 0.00 66 1012.7
20260505012513 47 280 7.8 25.2 0.00 0.00 0.00 63 1012.8
20260505012015 48 311 13.0 25.2 0.00 0.00 0.00 57 1012.5
20260505011536 49 282 7.0 9.6 0.00 0.00 0.00 53 1012.5
20260505011014 49 284 5.2 12.2 0.00 0.00 0.00 52 1012.0
20260505010514 49 287 6.1 12.2 0.00 0.00 0.00 52 1011.8
20260505010030 49 293 8.7 13.9 0.00 0.00 0.00 52 1011.8
20260505005514 49 302 7.8 15.6 0.00 0.00 0.00 52 1011.5
20260505005014 49 302 9.6 15.6 0.00 0.00 0.00 51 1011.4
20260505004534 49 302 8.7 15.6 0.00 0.00 0.00 51 1011.3
20260505004012 50 321 8.7 16.5 0.00 0.00 0.00 50 1011.2
20260505003514 51 355 9.6 17.4 0.00 0.00 0.00 48 1011.3
20260505003031 51 329 11.3 17.4 0.00 0.00 0.00 45 1011.3
20260505002514 51 319 8.7 17.4 0.00 0.00 0.00 45 1011.2
20260505002013 52 5 12.2 17.4 0.00 0.00 0.00 44 1011.0
20260505001531 52 12 10.4 17.4 0.00 0.00 0.00 43 1011.1
20260505001014 52 350 12.2 20.9 0.00 0.00 0.00 44 1011.2
20260505000514 52 347 12.2 20.9 0.00 0.00 0.00 45 1011.0
20260505000033 53 15 12.2 20.9 0.00 0.00 0.00 41 1011.1
20260504235514 53 5 11.3 15.6 0.00 0.00 0.00 43 1011.1
20260504235014 53 360 7.0 12.2 0.00 0.00 0.00 43 1011.1
20260504234532 53 360 6.1 13.9 0.00 0.00 0.00 42 1011.0
20260504234013 53 355 5.2 14.8 0.00 0.00 0.00 41 1011.3
20260504233513 53 360 10.4 14.8 0.00 0.00 0.00 41 1011.3
20260504233030 54 21 8.7 11.3 0.00 0.00 0.00 40 1011.3
20260504232513 54 321 5.2 9.6 0.00 0.00 0.00 39 1011.2
20260504232015 54 308 2.6 7.8 0.00 0.00 0.00 42 1011.3
20260504231529 53 105 1.7 7.8 0.00 0.00 0.00 41 1011.0
20260504231014 53 111 2.6 13.9 0.00 0.00 0.00 43 1010.9
20260504230515 52 182 2.6 14.8 0.00 0.00 0.00 42 1011.0
20260504230032 52 40 5.2 21.7 0.00 0.00 0.00 45 1011.4
20260504225516 52 346 5.2 21.7 0.00 0.00 0.00 42 1011.6
20260504225015 53 60 6.1 24.3 0.00 0.00 0.00 41 1011.4
20260504224530 54 186 14.8 24.3 0.00 0.00 0.00 37 1010.7
20260504224013 57 128 0.0 6.1 0.00 0.00 0.00 30 1010.7
20260504223515 57 92 0.9 5.2 0.00 0.00 0.00 29 1010.4
20260504223030 57 92 2.6 9.6 0.00 0.00 0.00 28 1010.4
20260504222515 57 90 3.5 11.3 0.00 0.00 0.00 28 1010.5
20260504222014 58 108 5.2 11.3 0.00 0.00 0.00 27 1010.4
20260504221536 59 125 7.0 11.3 0.00 0.00 0.00 25 1010.4
20260504221015 59 86 3.5 7.8 0.00 0.00 0.00 25 1010.3
20260504220514 59 86 4.3 13.0 0.00 0.00 0.00 24 1010.1
20260504220030 60 38 6.1 16.5 0.00 0.00 0.00 24 1009.9
20260504215514 60 36 10.4 16.5 0.00 0.00 0.00 20 1009.9
20260504215012 61 29 6.1 16.5 0.00 0.00 0.00 24 1010.0
20260504214539 61 11 8.7 16.5 0.00 0.00 0.00 22 1009.9
20260504214017 62 57 9.6 18.2 0.00 0.00 0.00 24 1009.9
20260504213516 61 40 10.4 18.2 0.00 0.00 0.00 24 1010.0
20260504213029 61 5 10.4 14.8 0.00 0.00 0.00 22 1010.1
20260504212515 61 10 9.6 16.5 0.00 0.00 0.00 23 1010.2
20260504212014 61 94 7.0 16.5 0.00 0.00 0.00 23 1010.2
20260504211532 62 44 7.0 11.3 0.00 0.00 0.00 21 1010.2
20260504211012 62 37 6.1 12.2 0.00 0.00 0.00 20 1010.2
20260504210514 61 33 7.8 12.2 0.00 0.00 0.00 21 1010.3
20260504210034 61 10 4.3 8.7 0.00 0.00 0.00 22 1010.1
20260504205514 61 346 5.2 9.6 0.00 0.00 0.00 21 1010.2
20260504205015 62 340 5.2 9.6 0.00 0.00 0.00 19 1010.2
20260504204530 62 33 4.3 9.6 0.00 0.00 0.00 19 1010.2
20260504204015 62 65 3.5 9.6 0.00 0.00 0.00 18 1010.3
20260504203512 61 360 0.9 7.8 0.00 0.00 0.00 22 1010.2
20260504203032 62 171 4.3 7.8 0.00 0.00 0.00 21 1010.2
20260504202514 62 22 0.0 7.0 0.00 0.00 0.00 18 1010.4
20260504202014 61 36 3.5 6.1 0.00 0.00 0.00 20 1010.3
20260504201530 61 355 2.6 5.2 0.00 0.00 0.00 19 1010.3
20260504201016 61 346 2.6 5.2 0.00 0.00 0.00 20 1010.3
20260504200514 61 307 1.7 7.8 0.00 0.00 0.00 19 1010.5
20260504200040 61 61 0.9 7.8 0.00 0.00 0.00 19 1010.4
20260504195516 61 96 5.2 7.8 0.00 0.00 0.00 19 1010.6
20260504195014 61 134 0.9 7.0 0.00 0.00 0.00 21 1010.6
20260504194536 61 207 2.6 7.0 0.00 0.00 0.00 19 1010.4
20260504194014 62 140 2.6 7.0 0.00 0.00 0.00 20 1010.6
20260504193515 62 84 3.5 7.0 0.00 0.00 0.00 19 1010.6
20260504193029 62 246 1.7 8.7 0.00 0.00 0.00 17 1010.6
20260504192515 63 239 3.5 8.7 0.00 0.00 0.00 19 1010.7
20260504192014 62 219 3.5 7.8 0.00 0.00 0.00 20 1010.6
20260504191546 61 235 2.6 7.8 0.00 0.00 0.00 20 1010.7
20260504191015 60 47 2.6 11.3 0.00 0.00 0.00 20 1010.8
20260504190513 61 69 6.1 11.3 0.00 0.00 0.00 19 1010.8
20260504190032 63 68 4.3 11.3 0.00 0.00 0.00 20 1010.8
20260504185513 63 121 1.7 9.6 0.00 0.00 0.00 20 1011.0
20260504185012 62 66 0.9 13.9 0.00 0.00 0.00 21 1011.0
20260504184533 60 71 4.3 18.2 0.00 0.00 0.00 21 1011.2
20260504184038 60 82 7.8 18.2 0.00 0.00 0.00 20 1011.4
20260504183515 58 303 7.8 13.9 0.00 0.00 0.00 23 1011.6
20260504183041 57 5 3.5 19.1 0.00 0.00 0.00 20 1011.7
20260504182514 57 347 7.0 19.1 0.00 0.00 0.00 23 1011.8
20260504182013 57 347 12.2 19.1 0.00 0.00 0.00 25 1011.5
20260504181531 59 304 11.3 17.4 0.00 0.00 0.00 22 1011.6
20260504181013 60 274 6.1 13.0 0.00 0.00 0.00 21 1011.6
20260504180516 61 284 4.3 12.2 0.00 0.00 0.00 21 1011.7
20260504180033 62 222 5.2 12.2 0.00 0.00 0.00 19 1011.6
20260504175513 62 219 7.0 12.2 0.00 0.00 0.00 20 1011.6
20260504175014 62 226 1.7 9.6 0.00 0.00 0.00 20 1011.8
20260504174532 63 148 2.6 13.0 0.00 0.00 0.00 21 1011.8
20260504174013 63 224 5.2 13.0 0.00 0.00 0.00 19 1012.1
20260504173513 62 208 1.7 15.6 0.00 0.00 0.00 22 1012.1
20260504173030 62 305 3.5 15.6 0.00 0.00 0.00 23 1012.3
20260504172512 61 276 7.8 15.6 0.00 0.00 0.00 22 1012.4
20260504172015 60 223 6.1 13.0 0.00 0.00 0.00 26 1012.4
20260504171532 60 229 8.7 13.0 0.00 0.00 0.00 26 1012.5
20260504171017 60 268 8.7 17.4 0.00 0.00 0.00 27 1012.5
20260504170517 59 252 9.6 17.4 0.00 0.00 0.00 27 1012.6
20260504151012 58 255 13.9 18.2 0.00 0.00 0.00 27 1012.9
20260504150516 58 240 13.0 18.2 0.00 0.00 0.00 27 1013.0
20260504141017 54 251 10.4 16.5 0.00 0.00 0.00 33 1012.7
20260504140512 53 246 12.2 16.5 0.00 0.00 0.00 32 1012.8
20260504130513 47 246 7.0 10.4 0.00 0.00 0.00 44 1012.8
20260504110513 42 244 4.3 7.0 0.00 0.00 0.00 51 1012.8
20260504100514 39 219 0.0 2.6 0.00 0.00 0.00 56 1013.2